Regional Weather Roundup
Issued by NWS Northern Indiana

Home | Current Version | Previous Version | Text Only | Print | Product List | Glossary On
Versions: 1 2 3 4 5 6 7 8 9 10 11 12 13 14 15 16 17 18 19 20 21 22 23 24 25 26 27 28 29 30 31 32 33 34 35 36 37 38 39 40 41 42 43 44 45 46 47 48 49 50
000
ASUS43 KIWX 121010
RWRIWX

KIWX WEATHER ROUNDUP
NATIONAL WEATHER SERVICE NORTHERN INDIANA
500 AM EST TUE DEC 12 2017

NOTE: "FAIR" INDICATES FEW OR NO CLOUDS BELOW 12,000 FEET WITH NO
SIGNIFICANT WEATHER AND/OR OBSTRUCTIONS TO VISIBILITY.

* THESE STATIONS ARE NOT UNDER NWS QUALITY CONTROL. THEY ALSO MAY NOT
  REPORT WEATHER SUCH AS PRECIPITATION OR FOG.

INZ001>027-121100-
NORTHERN INDIANA

CITY           SKY/WX    TMP DP  RH WIND       PRES   REMARKS
GARY*          CLOUDY    26  10  50 NW21G26   30.00R WCI  12
VALPARAISO     CLOUDY    27  14  58 NW15G32   29.94R WCI  15
MICHIGAN CITY* FLURRIES  27  14  59 N16G26    29.94R WCI  14
LAPORTE*       LGT SNOW  25  17  72 NW23G32   29.92R WCI  10
KNOX*          CLOUDY    28  19  69 NW22G29   29.91R WCI  15
SOUTH BEND     FLURRIES  24  17  74 NW18      29.89R WCI  10
GOSHEN         CLOUDY    26  18  71 NW21G30   29.85R WCI  12
MONTICELLO*    CLOUDY    28  16  60 NW18G29   29.92R WCI  15
LOGANSPORT*    CLOUDY    28  18  64 NW13G33   29.91R WCI  18
ROCHESTER*     CLOUDY    32  21  64 NW21G28   29.88R WCI  20
WARSAW*        FLURRIES  27  19  74 NW17G24   29.85R WCI  14
AUBURN*        CLOUDY    30  19  64 NW15G30   29.80R WCI  19
FORT WAYNE     FLURRIES  30  22  72 NW28G35   29.81R WCI  15
HUNTINGTON*    CLOUDY    29  20  69 N17G29    29.83R WCI  17
PERU/GRISSOM   MIX PCPN  29  21  70 NW21G33   29.86R WCI  16
MARION*        MIX PCPN  31  25  78 NW16G24   29.85R WCI  19

$$
INZ028>050-121100-
CENTRAL INDIANA

CITY           SKY/WX    TMP DP  RH WIND       PRES   REMARKS
LAFAYETTE      CLOUDY    30  21  69 NW21G28   29.94R WCI  17
KOKOMO*        FLURRIES  30  23  75 NW26G36   29.87R WCI  16
MUNCIE*        CLOUDY    32  26  78 NW21      29.82S WCI  20
INDIANAPOLIS   CLOUDY    30  27  88 NW20      29.91R WCI  17

$$
MIZ043>046-050>051-056>058-064>065-071>073-077>080-121100-
SOUTHWEST LOWER MICHIGAN

CITY           SKY/WX    TMP DP  RH WIND       PRES   REMARKS
BATTLE CREEK   PTCLDY    21  12  68 N16G29    29.82R WCI   7
BENTON HARBOR  LGT SNOW  25  16  68 NW14G26   29.91R WCI  13
COLDWATER*     PTCLDY    23  11  59 NW13G22   29.80R WCI  12
HILLSDALE*     MOCLDY    23  12  63 NW16G24   29.75R WCI  10
HOLLAND        LGT SNOW  21  15  78 N16G22    29.89R VSB 1   WCI   7
GRAND RAPIDS   PTCLDY    20  13  74 NW17G25   29.85R WCI   5
KALAMAZOO      PTCLDY    22  11  62 N23G33    29.85R WCI   6
STURGIS*       PTCLDY    22  16  76 N13G21    29.82R WCI  10
THREE RIVERS*  FLURRIES  24  19  78 NW13      29.85R WCI  13

$$
OHZ001>008-015>018-024>025-121100-
NORTHWEST OHIO

CITY           SKY/WX    TMP DP  RH WIND       PRES   REMARKS
WAUSEON*       CLOUDY    28  21  74 NW16G25   29.75R WCI  17
DEFIANCE       CLOUDY    29  21  72 NW17G28   29.78R WCI  17
FINDLAY        CLOUDY    31  23  72 NW13G23   29.72R WCI  21
TOLEDO EXPRESS LGT SNOW  28  26  92 NW13G24   29.74R FOG     WCI  17
TOLEDO METCALF CLOUDY    31  24  75 NW17      29.73R WCI  19
LIMA           CLOUDY    31  26  82 NW18      29.74R WCI  19

$$
AND FOR LAKE MICHIGAN COASTAL AND OPEN LAKE BUOY OBSERVATIONS

STATION/POSITION TEMP    WIND        PRES    VSBY  WAVE
                 AIR SEA DIR/SP/G                  HT/PER
                 (F)     (DEG/KT/KT) (MB)    (MI)  (FT/S)
CALUMET HARBOR    23     290/ 15/ 21 1015.0R
MICHIGAN CITY     27     330/ 31/ 34   N/A
BURNS HARBOR      28     340/ 23/ 32 1014.2R
SAINT JOSEPH      28     340/ 25/ 31 1013.9

$$
&&



USA.gov is the U.S. government's official web portal to all federal, state and local government web resources and services.